Year,Month,Day,Hour,Minute,Value (Times are PST for temperature in C)
2004,04,02,00,00,6.60
2004,04,02,00,01,6.60
2004,04,02,00,02,6.40
2004,04,02,00,03,6.40
2004,04,02,00,04,6.40
2004,04,02,00,05,6.40
2004,04,02,00,06,6.20
2004,04,02,00,07,6.20
2004,04,02,00,08,6.20
2004,04,02,00,09,6.20
2004,04,02,00,10,6.30
2004,04,02,00,11,6.30
2004,04,02,00,12,6.40
2004,04,02,00,13,6.40
2004,04,02,00,14,6.50
2004,04,02,00,15,6.40
2004,04,02,00,16,6.40
2004,04,02,00,17,6.40
2004,04,02,00,18,6.40
2004,04,02,00,19,6.50
2004,04,02,00,20,6.50
2004,04,02,00,21,6.60
2004,04,02,00,22,6.60
2004,04,02,00,23,6.70
2004,04,02,00,24,6.70
2004,04,02,00,25,6.70
2004,04,02,00,26,6.80
2004,04,02,00,27,6.70
2004,04,02,00,28,6.80
2004,04,02,00,29,6.80
2004,04,02,00,30,6.80
2004,04,02,00,31,6.70
2004,04,02,00,32,6.60
2004,04,02,00,33,6.60
2004,04,02,00,34,6.60
2004,04,02,00,35,6.40
2004,04,02,00,36,6.30
2004,04,02,00,37,6.10
2004,04,02,00,38,5.90
2004,04,02,00,39,5.80
2004,04,02,00,40,5.70
2004,04,02,00,41,5.60
2004,04,02,00,42,5.50
2004,04,02,00,43,5.40
2004,04,02,00,44,5.30
2004,04,02,00,45,5.30
2004,04,02,00,46,5.20
2004,04,02,00,47,5.20
2004,04,02,00,48,5.20
2004,04,02,00,49,5.20
2004,04,02,00,50,5.20
2004,04,02,00,51,5.10
2004,04,02,00,52,5.10
2004,04,02,00,53,5.10
2004,04,02,00,54,5.10
2004,04,02,00,55,5.10
2004,04,02,00,56,5.10
2004,04,02,00,57,5.10
2004,04,02,00,58,5.10
2004,04,02,00,59,5.10
2004,04,02,01,00,5.10
2004,04,02,01,01,5.00
2004,04,02,01,02,5.10
2004,04,02,01,03,5.10
2004,04,02,01,04,5.10
2004,04,02,01,05,5.10
2004,04,02,01,06,5.10
2004,04,02,01,07,5.10
2004,04,02,01,08,5.20
2004,04,02,01,09,5.20
2004,04,02,01,10,5.20
2004,04,02,01,11,5.20
2004,04,02,01,12,5.20
2004,04,02,01,13,5.30
2004,04,02,01,14,5.30
2004,04,02,01,15,5.30
2004,04,02,01,16,5.40
2004,04,02,01,17,5.40
2004,04,02,01,18,5.40
2004,04,02,01,19,5.40
2004,04,02,01,20,5.40
2004,04,02,01,21,5.40
2004,04,02,01,22,5.30
2004,04,02,01,23,5.40
2004,04,02,01,24,5.40
2004,04,02,01,25,5.40
2004,04,02,01,26,5.50
2004,04,02,01,27,5.60
2004,04,02,01,28,5.60
2004,04,02,01,29,5.70
2004,04,02,01,30,5.70
2004,04,02,01,31,5.70
2004,04,02,01,32,5.70
2004,04,02,01,33,5.60
2004,04,02,01,34,5.60
2004,04,02,01,35,5.60
2004,04,02,01,36,5.60
2004,04,02,01,37,5.60
2004,04,02,01,38,5.70
2004,04,02,01,39,5.60
2004,04,02,01,40,5.50
2004,04,02,01,41,5.60
2004,04,02,01,42,5.60
2004,04,02,01,43,5.60
2004,04,02,01,44,5.50
2004,04,02,01,45,5.50
2004,04,02,01,46,5.40
2004,04,02,01,47,5.40
2004,04,02,01,48,5.50
2004,04,02,01,49,5.50
2004,04,02,01,50,5.50
2004,04,02,01,51,5.50
2004,04,02,01,52,5.50
2004,04,02,01,53,5.50
2004,04,02,01,54,5.50
2004,04,02,01,55,5.50
2004,04,02,01,56,5.50
2004,04,02,01,57,5.30
2004,04,02,01,58,5.30
2004,04,02,01,59,5.20
2004,04,02,02,00,5.10
2004,04,02,02,01,4.90
2004,04,02,02,02,4.80
2004,04,02,02,03,4.70
2004,04,02,02,04,4.60
2004,04,02,02,05,4.60
2004,04,02,02,06,4.50
2004,04,02,02,07,4.40
2004,04,02,02,08,4.40
2004,04,02,02,09,4.30
2004,04,02,02,10,4.30
2004,04,02,02,11,4.20
2004,04,02,02,12,4.30
2004,04,02,02,13,4.20
2004,04,02,02,14,4.20
2004,04,02,02,15,4.30
2004,04,02,02,16,4.40
2004,04,02,02,17,4.50
2004,04,02,02,18,4.60
2004,04,02,02,19,4.60
2004,04,02,02,20,4.70
2004,04,02,02,21,4.70
2004,04,02,02,22,4.80
2004,04,02,02,23,4.80
2004,04,02,02,24,4.70
2004,04,02,02,25,4.70
2004,04,02,02,26,4.70
2004,04,02,02,27,4.70
2004,04,02,02,28,4.70
2004,04,02,02,29,4.70
2004,04,02,02,30,4.70
2004,04,02,02,31,4.70
2004,04,02,02,32,4.80
2004,04,02,02,33,4.80
2004,04,02,02,34,4.80
2004,04,02,02,35,4.90
2004,04,02,02,36,4.90
2004,04,02,02,37,5.10
2004,04,02,02,38,5.10
2004,04,02,02,39,5.10
2004,04,02,02,40,5.20
2004,04,02,02,41,5.30
2004,04,02,02,42,5.40
2004,04,02,02,43,5.40
2004,04,02,02,44,5.30
2004,04,02,02,45,5.20
2004,04,02,02,46,5.10
2004,04,02,02,47,5.10
2004,04,02,02,48,5.10
2004,04,02,02,49,5.10
2004,04,02,02,50,5.10
2004,04,02,02,51,5.20
2004,04,02,02,52,5.20
2004,04,02,02,53,5.20
2004,04,02,02,54,5.20
2004,04,02,02,55,5.20
2004,04,02,02,56,5.20
2004,04,02,02,57,5.30
2004,04,02,02,58,5.40
2004,04,02,02,59,5.50
2004,04,02,03,00,5.50
2004,04,02,03,01,5.60
2004,04,02,03,02,5.60
2004,04,02,03,03,5.60
2004,04,02,03,04,5.60
2004,04,02,03,05,5.60
2004,04,02,03,06,5.60
2004,04,02,03,07,5.60
2004,04,02,03,08,5.50
2004,04,02,03,09,5.40
2004,04,02,03,10,5.20
2004,04,02,03,11,5.10
2004,04,02,03,12,5.10
2004,04,02,03,13,5.00
2004,04,02,03,14,5.00
2004,04,02,03,15,5.00
2004,04,02,03,16,5.10
2004,04,02,03,17,5.10
2004,04,02,03,18,5.10
2004,04,02,03,19,5.10
2004,04,02,03,20,5.00
2004,04,02,03,21,5.00
2004,04,02,03,22,4.90
2004,04,02,03,23,5.00
2004,04,02,03,24,4.90
2004,04,02,03,25,4.90
2004,04,02,03,26,4.90
2004,04,02,03,27,4.90
2004,04,02,03,28,4.90
2004,04,02,03,29,4.90
2004,04,02,03,30,4.90
2004,04,02,03,31,5.00
2004,04,02,03,32,4.90
2004,04,02,03,33,4.90
2004,04,02,03,34,4.80
2004,04,02,03,35,4.70
2004,04,02,03,36,4.60
2004,04,02,03,37,4.60
2004,04,02,03,38,4.50
2004,04,02,03,39,4.50
2004,04,02,03,40,4.50
2004,04,02,03,41,4.50
2004,04,02,03,42,4.50
2004,04,02,03,43,4.50
2004,04,02,03,44,4.40
2004,04,02,03,45,4.40
2004,04,02,03,46,4.30
2004,04,02,03,47,4.30
2004,04,02,03,48,4.30
2004,04,02,03,49,4.40
2004,04,02,03,50,4.40
2004,04,02,03,51,4.60
2004,04,02,03,52,4.60
2004,04,02,03,53,4.60
2004,04,02,03,54,4.60
2004,04,02,03,55,4.70
2004,04,02,03,56,4.80
2004,04,02,03,57,4.80
2004,04,02,03,58,4.80
2004,04,02,03,59,4.90
2004,04,02,04,00,5.00
2004,04,02,04,01,5.10
2004,04,02,04,02,5.10
2004,04,02,04,03,5.10
2004,04,02,04,04,5.10
2004,04,02,04,05,5.10
2004,04,02,04,06,5.10
2004,04,02,04,07,5.10
2004,04,02,04,08,5.10
2004,04,02,04,09,5.10
2004,04,02,04,10,5.10
2004,04,02,04,11,5.10
2004,04,02,04,12,5.20
2004,04,02,04,13,5.30
2004,04,02,04,14,5.30
2004,04,02,04,15,5.40
2004,04,02,04,16,5.40
2004,04,02,04,17,5.40
2004,04,02,04,18,5.50
2004,04,02,04,19,5.50
2004,04,02,04,20,5.50
2004,04,02,04,21,5.50
2004,04,02,04,22,5.50
2004,04,02,04,23,5.50
2004,04,02,04,24,5.50
2004,04,02,04,25,5.60
2004,04,02,04,26,5.60
2004,04,02,04,27,5.70
2004,04,02,04,28,5.70
2004,04,02,04,29,5.70
2004,04,02,04,30,5.70
2004,04,02,04,31,5.70
2004,04,02,04,32,5.80
2004,04,02,04,33,5.80
2004,04,02,04,34,5.80
2004,04,02,04,35,5.80
2004,04,02,04,36,5.80
2004,04,02,04,37,5.80
2004,04,02,04,38,5.80
2004,04,02,04,39,5.80
2004,04,02,04,40,5.80
2004,04,02,04,41,5.80
2004,04,02,04,42,5.80
2004,04,02,04,43,5.90
2004,04,02,04,44,5.90
2004,04,02,04,45,5.90
2004,04,02,04,46,5.90
2004,04,02,04,47,5.90
2004,04,02,04,48,5.90
2004,04,02,04,49,6.00
2004,04,02,04,50,6.00
2004,04,02,04,51,6.00
2004,04,02,04,52,6.00
2004,04,02,04,53,6.10
2004,04,02,04,54,6.10
2004,04,02,04,55,6.10
2004,04,02,04,56,6.10
2004,04,02,04,57,6.10
2004,04,02,04,58,6.10
2004,04,02,04,59,6.10
2004,04,02,05,00,6.10
2004,04,02,05,01,6.10
2004,04,02,05,02,6.10
2004,04,02,05,03,6.10
2004,04,02,05,04,6.10
2004,04,02,05,05,6.10
2004,04,02,05,06,6.10
2004,04,02,05,07,6.20
2004,04,02,05,08,6.20
2004,04,02,05,09,6.20
2004,04,02,05,10,6.20
2004,04,02,05,11,6.20
2004,04,02,05,12,6.20
2004,04,02,05,13,6.20
2004,04,02,05,14,6.20
2004,04,02,05,15,6.20
2004,04,02,05,16,6.20
2004,04,02,05,17,6.20
2004,04,02,05,18,6.10
2004,04,02,05,19,6.10
2004,04,02,05,20,6.10
2004,04,02,05,21,6.00
2004,04,02,05,22,6.00
2004,04,02,05,23,6.00
2004,04,02,05,24,6.00
2004,04,02,05,25,6.00
2004,04,02,05,26,6.00
2004,04,02,05,27,6.00
2004,04,02,05,28,6.00
2004,04,02,05,29,6.00
2004,04,02,05,30,6.00
2004,04,02,05,31,6.00
2004,04,02,05,32,6.00
2004,04,02,05,33,6.00
2004,04,02,05,34,6.00
2004,04,02,05,35,6.00
2004,04,02,05,36,6.00
2004,04,02,05,37,6.00
2004,04,02,05,38,6.00
2004,04,02,05,39,6.00
2004,04,02,05,40,6.00
2004,04,02,05,41,6.00
2004,04,02,05,42,6.00
2004,04,02,05,43,6.00
2004,04,02,05,44,6.00
2004,04,02,05,45,6.00
2004,04,02,05,46,6.00
2004,04,02,05,47,6.10
2004,04,02,05,48,6.10
2004,04,02,05,49,6.10
2004,04,02,05,50,6.20
2004,04,02,05,51,6.20
2004,04,02,05,52,6.20
2004,04,02,05,53,6.20
2004,04,02,05,54,6.20
2004,04,02,05,55,6.20
2004,04,02,05,56,6.20
2004,04,02,05,57,6.20
2004,04,02,05,58,6.20
2004,04,02,05,59,6.30
2004,04,02,06,00,6.30
2004,04,02,06,01,6.30
2004,04,02,06,02,6.30
2004,04,02,06,03,6.30
2004,04,02,06,04,6.30
2004,04,02,06,05,6.40
2004,04,02,06,06,6.40
2004,04,02,06,07,6.40
2004,04,02,06,08,6.40
2004,04,02,06,09,6.40
2004,04,02,06,10,6.40
2004,04,02,06,11,6.40
2004,04,02,06,12,6.40
2004,04,02,06,13,6.40
2004,04,02,06,14,6.40
2004,04,02,06,15,6.40
2004,04,02,06,16,6.40
2004,04,02,06,17,6.30
2004,04,02,06,18,6.30
2004,04,02,06,19,6.30
2004,04,02,06,20,6.30
2004,04,02,06,21,6.20
2004,04,02,06,22,6.20
2004,04,02,06,23,6.20
2004,04,02,06,24,6.20
2004,04,02,06,25,6.20
2004,04,02,06,26,6.20
2004,04,02,06,27,6.20
2004,04,02,06,28,6.20
2004,04,02,06,29,6.20
2004,04,02,06,30,6.20
2004,04,02,06,31,6.20
2004,04,02,06,32,6.20
2004,04,02,06,33,6.20
2004,04,02,06,34,6.20
2004,04,02,06,35,6.20
2004,04,02,06,36,6.20
2004,04,02,06,37,6.20
2004,04,02,06,38,6.20
2004,04,02,06,39,6.20
2004,04,02,06,40,6.20
2004,04,02,06,41,6.20
2004,04,02,06,42,6.20
2004,04,02,06,43,6.30
2004,04,02,06,44,6.30
2004,04,02,06,45,6.30
2004,04,02,06,46,6.40
2004,04,02,06,47,6.40
2004,04,02,06,48,6.40
2004,04,02,06,49,6.60
2004,04,02,06,50,6.60
2004,04,02,06,51,6.60
2004,04,02,06,52,6.60
2004,04,02,06,53,6.70
2004,04,02,06,54,6.70
2004,04,02,06,55,6.80
2004,04,02,06,56,6.80
2004,04,02,06,57,6.80
2004,04,02,06,58,6.80
2004,04,02,06,59,6.90
2004,04,02,07,00,6.90
2004,04,02,07,01,7.00
2004,04,02,07,02,7.00
2004,04,02,07,03,7.10
2004,04,02,07,04,7.10
2004,04,02,07,05,7.10
2004,04,02,07,06,7.20
2004,04,02,07,07,7.20
2004,04,02,07,08,7.20
2004,04,02,07,09,7.30
2004,04,02,07,10,7.30
2004,04,02,07,11,7.30
2004,04,02,07,12,7.30
2004,04,02,07,13,7.30
2004,04,02,07,14,7.30
2004,04,02,07,15,7.30
2004,04,02,07,16,7.30
2004,04,02,07,17,7.40
2004,04,02,07,18,7.40
2004,04,02,07,19,7.40
2004,04,02,07,20,7.40
2004,04,02,07,21,7.40
2004,04,02,07,22,7.40
2004,04,02,07,23,7.40
2004,04,02,07,24,7.40
2004,04,02,07,25,7.40
2004,04,02,07,26,7.50
2004,04,02,07,27,7.50
2004,04,02,07,28,7.50
2004,04,02,07,29,7.50
2004,04,02,07,30,7.50
2004,04,02,07,31,7.50
2004,04,02,07,32,7.50
2004,04,02,07,33,7.60
2004,04,02,07,34,7.60
2004,04,02,07,35,7.60
2004,04,02,07,36,7.60
2004,04,02,07,37,7.70
2004,04,02,07,38,7.70
2004,04,02,07,39,7.70
2004,04,02,07,40,7.70
2004,04,02,07,41,7.70
2004,04,02,07,42,7.80
2004,04,02,07,43,7.80
2004,04,02,07,44,7.80
2004,04,02,07,45,7.80
2004,04,02,07,46,7.80
2004,04,02,07,47,7.80
2004,04,02,07,48,7.70
2004,04,02,07,49,7.70
2004,04,02,07,50,7.80
2004,04,02,07,51,7.80
2004,04,02,07,52,7.80
2004,04,02,07,53,7.80
2004,04,02,07,54,7.80
2004,04,02,07,55,7.90
2004,04,02,07,56,7.90
2004,04,02,07,57,7.90
2004,04,02,07,58,8.00
2004,04,02,07,59,8.00
2004,04,02,08,00,8.10
2004,04,02,08,01,8.10
2004,04,02,08,02,8.20
2004,04,02,08,03,8.20
2004,04,02,08,04,8.20
2004,04,02,08,05,8.30
2004,04,02,08,06,8.30
2004,04,02,08,07,8.40
2004,04,02,08,08,8.40
2004,04,02,08,09,8.40
2004,04,02,08,10,8.40
2004,04,02,08,11,8.40
2004,04,02,08,12,8.30
2004,04,02,08,13,8.30
2004,04,02,08,14,8.30
2004,04,02,08,15,8.40
2004,04,02,08,16,8.40
2004,04,02,08,17,8.40
2004,04,02,08,18,8.50
2004,04,02,08,19,8.50
2004,04,02,08,20,8.50
2004,04,02,08,21,8.60
2004,04,02,08,22,8.60
2004,04,02,08,23,8.70
2004,04,02,08,24,8.70
2004,04,02,08,25,8.70
2004,04,02,08,26,8.60
2004,04,02,08,27,8.60
2004,04,02,08,28,8.60
2004,04,02,08,29,8.60
2004,04,02,08,30,8.60
2004,04,02,08,31,8.60
2004,04,02,08,32,8.70
2004,04,02,08,33,8.70
2004,04,02,08,34,8.60
2004,04,02,08,35,8.60
2004,04,02,08,36,8.60
2004,04,02,08,37,8.60
2004,04,02,08,38,8.60
2004,04,02,08,39,8.60
2004,04,02,08,40,8.60
2004,04,02,08,41,8.60
2004,04,02,08,42,8.50
2004,04,02,08,43,8.60
2004,04,02,08,44,8.60
2004,04,02,08,45,8.60
2004,04,02,08,46,8.70
2004,04,02,08,47,8.70
2004,04,02,08,48,8.70
2004,04,02,08,49,8.80
2004,04,02,08,50,8.90
2004,04,02,08,51,8.80
2004,04,02,08,52,8.80
2004,04,02,08,53,8.80
2004,04,02,08,54,8.80
2004,04,02,08,55,8.80
2004,04,02,08,56,8.80
2004,04,02,08,57,8.90
2004,04,02,08,58,8.90
2004,04,02,08,59,8.90
2004,04,02,09,00,9.00
2004,04,02,09,01,9.10
2004,04,02,09,02,9.20
2004,04,02,09,03,9.20
2004,04,02,09,04,9.10
2004,04,02,09,05,9.10
2004,04,02,09,06,9.10
2004,04,02,09,07,9.10
2004,04,02,09,08,9.20
2004,04,02,09,09,9.20
2004,04,02,09,10,9.20
2004,04,02,09,11,9.20
2004,04,02,09,12,9.20
2004,04,02,09,13,9.20
2004,04,02,09,14,9.20
2004,04,02,09,15,9.30
2004,04,02,09,16,9.30
2004,04,02,09,17,9.30
2004,04,02,09,18,9.40
2004,04,02,09,19,9.40
2004,04,02,09,20,9.30
2004,04,02,09,21,9.40
2004,04,02,09,22,9.50
2004,04,02,09,23,9.60
2004,04,02,09,24,9.70
2004,04,02,09,25,9.70
2004,04,02,09,26,9.80
2004,04,02,09,27,9.90
2004,04,02,09,28,9.90
2004,04,02,09,29,10.00
2004,04,02,09,30,10.10
2004,04,02,09,31,10.20
2004,04,02,09,32,10.20
2004,04,02,09,33,10.20
2004,04,02,09,34,10.10
2004,04,02,09,35,10.10
2004,04,02,09,36,10.10
2004,04,02,09,37,10.10
2004,04,02,09,38,10.10
2004,04,02,09,39,10.20
2004,04,02,09,40,10.20
2004,04,02,09,41,10.20
2004,04,02,09,42,10.10
2004,04,02,09,43,10.10
2004,04,02,09,44,10.00
2004,04,02,09,45,9.90
2004,04,02,09,46,9.90
2004,04,02,09,47,10.00
2004,04,02,09,48,10.00
2004,04,02,09,49,10.10
2004,04,02,09,50,10.10
2004,04,02,09,51,10.10
2004,04,02,09,52,10.20
2004,04,02,09,53,10.20
2004,04,02,09,54,10.20
2004,04,02,09,55,10.20
2004,04,02,09,56,10.20
2004,04,02,09,57,10.20
2004,04,02,09,58,10.30
2004,04,02,09,59,10.30
2004,04,02,10,00,10.40
2004,04,02,10,01,10.40
2004,04,02,10,02,10.40
2004,04,02,10,03,10.40
2004,04,02,10,04,10.40
2004,04,02,10,05,10.40
2004,04,02,10,06,10.40
2004,04,02,10,07,10.40
2004,04,02,10,08,10.40
2004,04,02,10,09,10.40
2004,04,02,10,10,10.40
2004,04,02,10,11,10.50
2004,04,02,10,12,10.60
2004,04,02,10,13,10.70
2004,04,02,10,14,10.60
2004,04,02,10,15,10.60
2004,04,02,10,16,10.60
2004,04,02,10,17,10.60
2004,04,02,10,18,10.60
2004,04,02,10,19,10.60
2004,04,02,10,20,10.70
2004,04,02,10,21,10.70
2004,04,02,10,22,10.70
2004,04,02,10,23,10.70
2004,04,02,10,24,10.80
2004,04,02,10,25,10.70
2004,04,02,10,26,10.70
2004,04,02,10,27,10.60
2004,04,02,10,28,10.60
2004,04,02,10,29,10.60
2004,04,02,10,30,10.60
2004,04,02,10,31,10.60
2004,04,02,10,32,10.60
2004,04,02,10,33,10.60
2004,04,02,10,34,10.50
2004,04,02,10,35,10.60
2004,04,02,10,36,10.50
2004,04,02,10,37,10.60
2004,04,02,10,38,10.60
2004,04,02,10,39,10.70
2004,04,02,10,40,10.90
2004,04,02,10,41,10.90
2004,04,02,10,42,10.90
2004,04,02,10,43,11.00
2004,04,02,10,44,11.10
2004,04,02,10,45,11.20
2004,04,02,10,46,11.20
2004,04,02,10,47,11.20
2004,04,02,10,48,11.20
2004,04,02,10,49,11.30
2004,04,02,10,50,11.30
2004,04,02,10,51,11.40
2004,04,02,10,52,11.40
2004,04,02,10,53,11.40
2004,04,02,10,54,11.40
2004,04,02,10,55,11.30
2004,04,02,10,56,11.20
2004,04,02,10,57,11.20
2004,04,02,10,58,11.20
2004,04,02,10,59,11.10
2004,04,02,11,00,11.10
2004,04,02,11,01,11.10
2004,04,02,11,02,11.10
2004,04,02,11,03,11.10
2004,04,02,11,04,11.10
2004,04,02,11,05,11.10
2004,04,02,11,06,11.20
2004,04,02,11,07,11.20
2004,04,02,11,08,11.20
2004,04,02,11,09,11.30
2004,04,02,11,10,11.40
2004,04,02,11,11,11.50
2004,04,02,11,12,11.60
2004,04,02,11,13,11.70
2004,04,02,11,14,11.80
2004,04,02,11,15,11.80
2004,04,02,11,16,11.80
2004,04,02,11,17,11.90
2004,04,02,11,18,11.90
2004,04,02,11,19,11.90
2004,04,02,11,20,11.90
2004,04,02,11,21,12.00
2004,04,02,11,22,12.10
2004,04,02,11,23,12.00
2004,04,02,11,24,12.00
2004,04,02,11,25,12.00
2004,04,02,11,26,12.00
2004,04,02,11,27,12.10
2004,04,02,11,28,12.10
2004,04,02,11,29,12.10
2004,04,02,11,30,12.10
2004,04,02,11,31,12.10
2004,04,02,11,32,12.10
2004,04,02,11,33,12.10
2004,04,02,11,34,12.20
2004,04,02,11,35,12.20
2004,04,02,11,36,12.20
2004,04,02,11,37,12.30
2004,04,02,11,38,12.30
2004,04,02,11,39,12.30
2004,04,02,11,40,12.30
2004,04,02,11,41,12.30
2004,04,02,11,42,12.30
2004,04,02,11,43,12.20
2004,04,02,11,44,12.10
2004,04,02,11,45,12.10
2004,04,02,11,46,12.20
2004,04,02,11,47,12.20
2004,04,02,11,48,12.30
2004,04,02,11,49,12.30
2004,04,02,11,50,12.30
2004,04,02,11,51,12.20
2004,04,02,11,52,12.20
2004,04,02,11,53,12.10
2004,04,02,11,54,12.20
2004,04,02,11,55,12.30
2004,04,02,11,56,12.40
2004,04,02,11,57,12.40
2004,04,02,11,58,12.50
2004,04,02,11,59,12.60
2004,04,02,12,00,12.60
2004,04,02,12,01,12.60
2004,04,02,12,02,12.60
2004,04,02,12,03,12.50
2004,04,02,12,04,12.50
2004,04,02,12,05,12.60
2004,04,02,12,06,12.60
2004,04,02,12,07,12.60
2004,04,02,12,08,12.60
2004,04,02,12,09,12.60
2004,04,02,12,10,12.60
2004,04,02,12,11,12.60
2004,04,02,12,12,12.60
2004,04,02,12,13,12.60
2004,04,02,12,14,12.60
2004,04,02,12,15,12.70
2004,04,02,12,16,12.60
2004,04,02,12,17,12.60
2004,04,02,12,18,12.60
2004,04,02,12,19,12.60
2004,04,02,12,20,12.50
2004,04,02,12,21,12.60
2004,04,02,12,22,12.60
2004,04,02,12,23,12.60
2004,04,02,12,24,12.50
2004,04,02,12,25,12.50
2004,04,02,12,26,12.60
2004,04,02,12,27,12.60
2004,04,02,12,28,12.60
2004,04,02,12,29,12.50
2004,04,02,12,30,12.40
2004,04,02,12,31,12.40
2004,04,02,12,32,12.50
2004,04,02,12,33,12.50
2004,04,02,12,34,12.60
2004,04,02,12,35,12.70
2004,04,02,12,36,12.70
2004,04,02,12,37,12.70
2004,04,02,12,38,12.70
2004,04,02,12,39,12.80
2004,04,02,12,40,12.80
2004,04,02,12,41,12.80
2004,04,02,12,42,12.80
2004,04,02,12,43,12.90
2004,04,02,12,44,12.90
2004,04,02,12,45,12.90
2004,04,02,12,46,12.90
2004,04,02,12,47,12.90
2004,04,02,12,48,13.10
2004,04,02,12,49,13.00
2004,04,02,12,50,13.00
2004,04,02,12,51,13.00
2004,04,02,12,52,13.10
2004,04,02,12,53,13.10
2004,04,02,12,54,13.20
2004,04,02,12,55,13.20
2004,04,02,12,56,13.20
2004,04,02,12,57,13.10
2004,04,02,12,58,13.20
2004,04,02,12,59,13.10
2004,04,02,13,00,13.10
2004,04,02,13,01,13.10
2004,04,02,13,02,13.10
2004,04,02,13,03,13.00
2004,04,02,13,04,13.00
2004,04,02,13,05,13.00
2004,04,02,13,06,13.00
2004,04,02,13,07,13.10
2004,04,02,13,08,13.10
2004,04,02,13,09,13.20
2004,04,02,13,10,13.40
2004,04,02,13,11,13.40
2004,04,02,13,12,13.40
2004,04,02,13,13,13.50
2004,04,02,13,14,13.50
2004,04,02,13,15,13.50
2004,04,02,13,16,13.40
2004,04,02,13,17,13.40
2004,04,02,13,18,13.40
2004,04,02,13,19,13.40
2004,04,02,13,20,13.40
2004,04,02,13,21,13.30
2004,04,02,13,22,13.50
2004,04,02,13,23,13.60
2004,04,02,13,24,13.70
2004,04,02,13,25,13.60
2004,04,02,13,26,13.60
2004,04,02,13,27,13.60
2004,04,02,13,28,13.70
2004,04,02,13,29,13.70
2004,04,02,13,30,13.90
2004,04,02,13,31,13.90
2004,04,02,13,32,13.90
2004,04,02,13,33,13.90
2004,04,02,13,34,13.90
2004,04,02,13,35,13.90
2004,04,02,13,36,13.80
2004,04,02,13,37,13.80
2004,04,02,13,38,13.80
2004,04,02,13,39,13.70
2004,04,02,13,40,13.70
2004,04,02,13,41,13.70
2004,04,02,13,42,13.70
2004,04,02,13,43,13.70
2004,04,02,13,44,13.80
2004,04,02,13,45,13.80
2004,04,02,13,46,13.80
2004,04,02,13,47,13.80
2004,04,02,13,48,13.90
2004,04,02,13,49,14.00
2004,04,02,13,50,14.10
2004,04,02,13,51,14.20
2004,04,02,13,52,14.20
2004,04,02,13,53,14.20
2004,04,02,13,54,14.20
2004,04,02,13,55,14.20
2004,04,02,13,56,14.20
2004,04,02,13,57,14.20
2004,04,02,13,58,14.20
2004,04,02,13,59,14.20
2004,04,02,14,00,14.10
2004,04,02,14,01,14.10
2004,04,02,14,02,14.00
2004,04,02,14,03,14.00
2004,04,02,14,04,14.10
2004,04,02,14,05,14.00
2004,04,02,14,06,14.00
2004,04,02,14,07,14.00
2004,04,02,14,08,14.00
2004,04,02,14,09,14.10
2004,04,02,14,10,14.10
2004,04,02,14,11,14.10
2004,04,02,14,12,14.10
2004,04,02,14,13,14.00
2004,04,02,14,14,14.00
2004,04,02,14,15,13.90
2004,04,02,14,16,13.90
2004,04,02,14,17,14.00
2004,04,02,14,18,14.00
2004,04,02,14,19,14.10
2004,04,02,14,20,14.10
2004,04,02,14,21,14.10
2004,04,02,14,22,14.00
2004,04,02,14,23,14.00
2004,04,02,14,24,14.00
2004,04,02,14,25,13.90
2004,04,02,14,26,13.90
2004,04,02,14,27,13.90
2004,04,02,14,28,13.90
2004,04,02,14,29,14.00
2004,04,02,14,30,14.00
2004,04,02,14,31,14.00
2004,04,02,14,32,14.10
2004,04,02,14,33,14.00
2004,04,02,14,34,14.00
2004,04,02,14,35,14.00
2004,04,02,14,36,14.10
2004,04,02,14,37,14.20
2004,04,02,14,38,14.30
2004,04,02,14,39,14.30
2004,04,02,14,40,14.30
2004,04,02,14,41,14.30
2004,04,02,14,42,14.30
2004,04,02,14,43,14.40
2004,04,02,14,44,14.30
2004,04,02,14,45,14.40
2004,04,02,14,46,14.40
2004,04,02,14,47,14.40
2004,04,02,14,48,14.40
2004,04,02,14,49,14.40
2004,04,02,14,50,14.50
2004,04,02,14,51,14.60
2004,04,02,14,52,14.60
2004,04,02,14,53,14.70
2004,04,02,14,54,14.70
2004,04,02,14,55,14.60
2004,04,02,14,56,14.60
2004,04,02,14,57,14.60
2004,04,02,14,58,14.60
2004,04,02,14,59,14.70
2004,04,02,15,00,14.60
2004,04,02,15,01,14.60
2004,04,02,15,02,14.60
2004,04,02,15,03,14.60
2004,04,02,15,04,14.50
2004,04,02,15,05,14.50
2004,04,02,15,06,14.50
2004,04,02,15,07,14.50
2004,04,02,15,08,14.50
2004,04,02,15,09,14.60
2004,04,02,15,10,14.70
2004,04,02,15,11,14.70
2004,04,02,15,12,14.60
2004,04,02,15,13,14.60
2004,04,02,15,14,14.70
2004,04,02,15,15,14.70
2004,04,02,15,16,14.60
2004,04,02,15,17,14.60
2004,04,02,15,18,14.60
2004,04,02,15,19,14.60
2004,04,02,15,20,14.70
2004,04,02,15,21,14.80
2004,04,02,15,22,14.80
2004,04,02,15,23,14.80
2004,04,02,15,24,14.80
2004,04,02,15,25,14.80
2004,04,02,15,26,14.90
2004,04,02,15,27,14.80
2004,04,02,15,28,14.80
2004,04,02,15,29,14.80
2004,04,02,15,30,14.80
2004,04,02,15,31,14.80
2004,04,02,15,32,14.80
2004,04,02,15,33,14.90
2004,04,02,15,34,14.80
2004,04,02,15,35,14.80
2004,04,02,15,36,14.80
2004,04,02,15,37,14.90
2004,04,02,15,38,14.90
2004,04,02,15,39,14.90
2004,04,02,15,40,14.90
2004,04,02,15,41,14.90
2004,04,02,15,42,14.90
2004,04,02,15,43,14.80
2004,04,02,15,44,14.80
2004,04,02,15,45,14.80
2004,04,02,15,46,14.90
2004,04,02,15,47,14.90
2004,04,02,15,48,15.00
2004,04,02,15,49,15.00
2004,04,02,15,50,15.10
2004,04,02,15,51,15.10
2004,04,02,15,52,15.20
2004,04,02,15,53,15.20
2004,04,02,15,54,15.10
2004,04,02,15,55,15.10
2004,04,02,15,56,15.20
2004,04,02,15,57,15.20
2004,04,02,15,58,15.20
2004,04,02,15,59,15.30
2004,04,02,16,00,15.30
2004,04,02,16,01,15.30
2004,04,02,16,02,15.30
2004,04,02,16,03,15.30
2004,04,02,16,04,15.30
2004,04,02,16,05,15.40
2004,04,02,16,06,15.40
2004,04,02,16,07,15.30
2004,04,02,16,08,15.30
2004,04,02,16,09,15.30
2004,04,02,16,10,15.30
2004,04,02,16,11,15.30
2004,04,02,16,12,15.30
2004,04,02,16,13,15.30
2004,04,02,16,14,15.40
2004,04,02,16,15,15.40
2004,04,02,16,16,15.40
2004,04,02,16,17,15.40
2004,04,02,16,18,15.40
2004,04,02,16,19,15.40
2004,04,02,16,20,15.40
2004,04,02,16,21,15.40
2004,04,02,16,22,15.40
2004,04,02,16,23,15.50
2004,04,02,16,24,15.50
2004,04,02,16,25,15.40
2004,04,02,16,26,15.40
2004,04,02,16,27,15.40
2004,04,02,16,28,15.40
2004,04,02,16,29,15.40
2004,04,02,16,30,15.30
2004,04,02,16,31,15.30
2004,04,02,16,32,15.40
2004,04,02,16,33,15.30
2004,04,02,16,34,15.30
2004,04,02,16,35,15.30
2004,04,02,16,36,15.30
2004,04,02,16,37,15.30
2004,04,02,16,38,15.30
2004,04,02,16,39,15.30
2004,04,02,16,40,15.30
2004,04,02,16,41,15.30
2004,04,02,16,42,15.30
2004,04,02,16,43,15.30
2004,04,02,16,44,15.30
2004,04,02,16,45,15.30
2004,04,02,16,46,15.30
2004,04,02,16,47,15.30
2004,04,02,16,48,15.30
2004,04,02,16,49,15.30
2004,04,02,16,50,15.20
2004,04,02,16,51,15.10
2004,04,02,16,52,15.10
2004,04,02,16,53,15.20
2004,04,02,16,54,15.10
2004,04,02,16,55,15.10
2004,04,02,16,56,15.10
2004,04,02,16,57,15.20
2004,04,02,16,58,15.20
2004,04,02,16,59,15.10
2004,04,02,17,00,15.10
2004,04,02,17,01,15.10
2004,04,02,17,02,15.10
2004,04,02,17,03,15.10
2004,04,02,17,04,15.10
2004,04,02,17,05,15.10
2004,04,02,17,06,15.10
2004,04,02,17,07,15.10
2004,04,02,17,08,15.10
2004,04,02,17,09,15.10
2004,04,02,17,10,15.10
2004,04,02,17,11,15.10
2004,04,02,17,12,15.10
2004,04,02,17,13,15.00
2004,04,02,17,14,15.10
2004,04,02,17,15,15.00
2004,04,02,17,16,15.00
2004,04,02,17,17,15.00
2004,04,02,17,18,15.00
2004,04,02,17,19,15.00
2004,04,02,17,20,15.00
2004,04,02,17,21,15.00
2004,04,02,17,22,14.90
2004,04,02,17,23,14.90
2004,04,02,17,24,14.90
2004,04,02,17,25,14.90
2004,04,02,17,26,14.80
2004,04,02,17,27,14.80
2004,04,02,17,28,14.80
2004,04,02,17,29,14.80
2004,04,02,17,30,14.80
2004,04,02,17,31,14.70
2004,04,02,17,32,14.70
2004,04,02,17,33,14.70
2004,04,02,17,34,14.60
2004,04,02,17,35,14.60
2004,04,02,17,36,14.60
2004,04,02,17,37,14.50
2004,04,02,17,38,14.50
2004,04,02,17,39,14.40
2004,04,02,17,40,14.40
2004,04,02,17,41,14.30
2004,04,02,17,42,14.30
2004,04,02,17,43,14.30
2004,04,02,17,44,14.20